Regional Weather Roundup
Issued by NWS Albany, NY

Home | Current Version | Previous Version | Graphics & Text | Print | Product List | Glossary On
Versions: 1 2 3 4 5 6 7 8 9 10 11 12 13 14 15 16 17 18 19 20 21 22 23 24 25 26 27 28
000
ASUS41 KALY 282310
RWRALY

NEW YORK STATE HOURLY WEATHER ROUNDUP
NATIONAL WEATHER SERVICE ALBANY NY
700 PM EDT SUN MAY 28 2017

NOTE: "FAIR" INDICATES FEW OR NO CLOUDS BELOW 12,000 FEET WITH NO
SIGNIFICANT WEATHER AND/OR NO OBSTRUCTIONS TO VISIBILITY.

NYZ032-033-038>043-046>054-057>066-NYZ062>081-082-084-290000-
EAST


CITY           SKY/WX    TMP DP  RH WIND       PRES   REMARKS
ALBANY         CLOUDY    71  56  58 S14       29.89R
GLENS FALLS    NOT AVBL
POUGHKEEPSIE   CLOUDY    67  55  65 SE9       29.91S
NEWBURGH       PTSUNNY   66  57  72 S12       29.93S
MONTGOMERY     PTSUNNY   67  55  65 S10       29.91R
WHITE PLAINS   CLOUDY    63  48  58 SE13      29.95S
ISLIP          CLOUDY    60  51  72 SE13      29.97S
NEW YORK CITY  CLOUDY    66  48  52 SE13G20   29.94F
CENTRAL PARK   PTSUNNY   64  49  57 S13G18    29.96F
$$

NYZ005>009-017-018-044>046-055-056-290000-
CENTRAL


CITY           SKY/WX    TMP DP  RH WIND       PRES   REMARKS
FULTON         CLOUDY    75  57  53 VRB3      29.77S
SYRACUSE       PTSUNNY   73  57  57 SE13      29.77F
ROME           PTSUNNY   72  57  59 SE10      29.82F
ELMIRA         CLOUDY    71  58  63 SW5       29.81S
BINGHAMTON     PTSUNNY   68  53  58 S9        29.85S
MONTICELLO     CLOUDY    64  55  72 SE13      29.93S
$$

NYZ026>034-041>043-087-290000-
NORTH


CITY           SKY/WX    TMP DP  RH WIND       PRES   REMARKS
WATERTOWN      CLOUDY    73  57  57 S7        29.77F
FORT DRUM      NOT AVBL
OGDENSBURG     FAIR      77  55  45 S3        29.79F
MASSENA        PTSUNNY   75  55  49 CALM      29.81F
SARANAC LAKE   MOSUNNY   68  50  52 SW8       29.86F
PLATTSBURGH    SUNNY     72  52  49 S14       29.83S
$$

NYZ001>004-010>016-019>021-085-290000-
WEST


CITY           SKY/WX    TMP DP  RH WIND       PRES   REMARKS
NIAGARA FALLS  CLOUDY    77  62  59 E8        29.70S
BUFFALO        PTSUNNY   75  61  61 E10       29.71S
DUNKIRK        CLOUDY    71  63  75 SE7       29.72S
JAMESTOWN      CLOUDY    64  59  82 S10       29.76F
WELLSVILLE     CLOUDY    64  58  80 S14G25    29.85R
ROCHESTER      CLOUDY    77  59  53 S13       29.73S
PENN YAN       PTSUNNY   72  56  57 S10       29.79R
$$

             KEY
       WCI = WIND CHILL INDEX
       VSB = VISIBILITY
       HX  = HEAT INDEX
$$




USA.gov is the U.S. government's official web portal to all federal, state and local government web resources and services.